[[{"header":{"parameterUnit":"m.s-1","parameterCategory":1,"la1":30.2991,"la2":30.254,"lo1":-89.0895,"lo2":-89.0444,"dy":0.0017,"dx":0.0017,"nx":28,"ny":28,"refTime":"2025-11-19T03:00:00:Z","depth":0,"parameterNumber":2,"parameterNumberName":"U-component_of_WINDS"},"data":[0,0,0,0,0,0,0,0,0,0,0,0,0,0,0,0,0,0,0,0,0,0,0,0,0,0,0,0,0,0,0,0,0,0,0,0,0,0,0,0,0,0,0,0,0,0,0,0,0,0,0,0,0,0,0,0,0,0,-0.9054,-0.9054,0,-0.9028,-0.9028,-0.9027,-0.8967,-0.8966,-0.8964,-0.8963,-0.8936,-0.8937,-0.8937,0,0,0,0,0,0,0,0,0,0,0,0,0,-0.905,-0.905,-0.9054,-0.9054,-0.9053,-0.9028,-0.9028,-0.9027,-0.8967,-0.8965,-0.8964,-0.8963,-0.8936,-0.8937,-0.8937,0,0,0,0,0,0,0,0,0,0,0,0,0,-0.904,-0.905,-0.9054,-0.902,-0.9017,-0.9028,-0.9028,-0.9027,-0.8967,-0.8965,-0.8964,-0.8962,-0.8936,-0.8937,-0.8937,-0.8979,0,0,-0.8939,-0.894,0,0,0,0,0,0,0,0,-0.9041,-0.9041,-0.9026,-0.9023,-0.9019,-0.8999,-0.9016,-0.9011,-0.8968,-0.8986,-0.8963,-0.8961,-0.8959,-0.8957,-0.8956,-0.8978,-0.8977,-0.8939,-0.894,-0.894,-0.894,0,0,0,0,0,0,0,-0.9042,-0.9041,-0.9044,-0.9025,-0.9021,-0.9006,-0.9002,-0.9015,-0.8983,-0.8984,-0.898,-0.8978,-0.8956,-0.8956,-0.8955,-0.8976,-0.8939,-0.894,-0.894,-0.8941,-0.9027,-0.9029,0,0,0,0,0,0,-0.9047,-0.9042,-0.9045,-0.9043,-0.9026,-0.9007,-0.9004,-0.9007,-0.8983,-0.8977,-0.8979,-0.8975,-0.8956,-0.8955,-0.8954,-0.8999,-0.894,-0.8941,-0.8941,-0.9025,-0.9028,-0.903,0,0,0,0,0,0,-0.9048,-0.9048,-0.9046,-0.9041,-0.904,-0.9009,-0.9014,-0.9008,-0.9007,-0.8979,-0.8973,-0.8985,-0.8954,-0.8953,-0.8973,-0.8997,-0.8941,-0.8942,-0.9023,-0.9026,-0.9029,-0.9091,0,0,0,0,0,0,-0.9048,-0.9049,-0.9065,-0.9042,-0.904,-0.9065,-0.9016,-0.9008,-0.9008,-0.9003,-0.8983,-0.8978,-0.8953,-0.8972,-0.8973,-0.8997,-0.8942,-0.9021,-0.9024,-0.9028,-0.9087,-0.9096,-0.9103,0,0,0,0,0,-0.9048,-0.9084,-0.9066,-0.9067,-0.906,-0.9067,-0.9066,-0.9036,-0.9011,-0.9026,-0.9008,-0.8978,-0.8995,-0.8974,-0.8975,-0.9,-0.9019,-0.9023,-0.9028,-0.9083,-0.9094,-0.9103,0,0,0,0,0,0,-0.9111,-0.9081,-0.906,-0.909,-0.9082,-0.9057,-0.9075,-0.905,-0.9048,-0.9042,-0.9006,-0.9002,-0.9026,-0.9015,-0.8993,-0.9038,-0.9002,-0.9007,-0.9044,-0.9054,-0.9062,-0.9063,-0.8943,0,0,0,0,0,-0.9128,-0.9137,-0.911,-0.9139,-0.9135,-0.9106,-0.9108,-0.9086,-0.9076,-0.9072,-0.9055,-0.9045,-0.9048,-0.9051,-0.9052,-0.9085,-0.9078,-0.9102,-0.9111,-0.9118,-0.9122,-0.9136,-0.9145,-0.9044,-0.9044,-0.9044,0,0,-0.9164,-0.9149,-0.9157,-0.9151,-0.9142,-0.915,-0.9104,-0.9115,-0.9121,-0.9073,-0.909,-0.9077,-0.9064,-0.909,-0.91,-0.9082,-0.9148,-0.9123,-0.9129,-0.9129,-0.9141,-0.915,-0.9159,-0.9047,-0.9046,-0.9046,0,0,-0.9234,-0.9224,-0.9246,-0.9237,-0.9223,-0.9203,-0.9208,-0.9187,-0.9176,-0.9192,-0.9156,-0.9162,-0.9168,-0.9159,-0.9156,-0.922,-0.9192,-0.9222,-0.9265,-0.9279,-0.9287,-0.9293,-0.9314,-0.9322,-0.9226,-0.9226,-0.9226,0,-0.928,-0.9292,-0.9261,-0.9273,-0.9271,-0.9228,-0.9249,-0.9242,-0.9229,-0.9228,-0.9208,-0.9213,-0.9201,-0.9223,-0.9238,-0.9238,-0.9241,-0.9223,-0.9288,-0.9295,-0.9301,-0.9319,-0.9328,-0.923,-0.9229,-0.9229,-0.9228,0,-0.9349,-0.9357,-0.9376,-0.9364,-0.9364,-0.9382,-0.9351,-0.9355,-0.9333,-0.9314,-0.933,-0.9314,-0.931,-0.9314,-0.9293,-0.9332,-0.932,-0.9295,-0.9258,-0.9314,-0.9331,-0.9339,-0.9235,-0.9233,-0.9232,-0.9231,0,0,-0.9457,-0.9426,-0.9433,-0.9426,-0.9407,-0.9412,-0.9427,-0.9422,-0.9425,-0.9418,-0.9427,-0.9433,-0.9408,-0.9404,-0.9381,-0.9394,-0.9442,-0.9366,-0.9365,-0.9378,-0.9481,-0.9499,-0.9508,-0.9424,-0.9425,-0.9426,-0.9481,0,-0.952,-0.9543,-0.9514,-0.9542,-0.9548,-0.9507,-0.9519,-0.9508,-0.9491,-0.9493,-0.9475,-0.9478,-0.9446,-0.9443,-0.9454,-0.9434,-0.9462,-0.943,-0.9431,-0.9431,-0.9433,-0.9517,-0.9537,-0.9589,-0.9488,-0.9489,-0.949,0,-0.9597,-0.9592,-0.9621,-0.9597,-0.9599,-0.961,-0.9602,-0.9606,-0.9591,-0.9578,-0.9573,-0.9545,-0.9556,-0.9521,-0.9535,-0.9513,-0.9512,-0.9502,-0.9504,-0.9501,-0.9463,-0.9515,-0.9606,-0.9613,-0.95,-0.95,-0.9499,0,-0.967,-0.9671,-0.9687,-0.9683,-0.9657,-0.9665,-0.9654,-0.9638,-0.9637,-0.963,-0.9628,-0.9623,-0.962,-0.9616,-0.9587,-0.9565,-0.9603,-0.9567,-0.9591,-0.9591,-0.9599,-0.9599,-0.9689,-0.9602,-0.9602,-0.9602,-0.9602,0,-0.9742,-0.9761,-0.9719,-0.9729,-0.9748,-0.9715,-0.9734,-0.9719,-0.9705,-0.971,-0.9675,-0.9681,-0.9643,-0.9644,-0.9622,-0.9635,-0.9635,-0.9623,-0.9616,-0.9625,-0.9626,-0.9622,-0.9617,-0.9604,-0.9604,-0.9603,-0.9603,0,-0.9827,-0.98,-0.9814,-0.9788,-0.9782,-0.9797,-0.9773,-0.9781,-0.9761,-0.9768,-0.9768,-0.9737,-0.9737,-0.9708,-0.9702,-0.9686,-0.9708,-0.9696,-0.9712,-0.9707,-0.9732,-0.9729,-0.9821,-0.9831,-0.974,-0.9741,-0.9742,0,-0.9874,-0.9887,-0.9861,-0.9862,-0.9853,-0.9855,-0.9853,-0.982,-0.9819,-0.9802,-0.9811,-0.9808,-0.9803,-0.9804,-0.978,-0.9774,-0.976,-0.9793,-0.9759,-0.9766,-0.9758,-0.9756,-0.9756,-0.98,-0.9801,-0.9802,-0.9803,0,-0.9959,-0.9944,-0.9942,-0.9935,-0.9933,-0.9926,-0.9917,-0.992,-0.9883,-0.9884,-0.9882,-0.9879,-0.9871,-0.9867,-0.9857,-0.9845,-0.9817,-0.9813,-0.9818,-0.9826,-0.9834,-0.9827,-0.9729,-0.9811,-0.981,-0.981,-0.9809,-0.9809,-1.0024,-1.0032,-1.0015,-1.0013,-1.0003,-0.9994,-0.9999,-0.998,-0.9978,-0.9969,-0.995,-0.9951,-0.9934,-0.9917,-0.9908,-0.9907,-0.989,-0.9898,-0.99,-0.9901,-0.9905,-0.9836,-0.9906,-0.9905,-0.9905,-0.9905,-0.9905,0,-1.0104,-1.0091,-1.009,-1.0077,-1.0076,-1.005,-1.0038,-1.0038,-1.0039,-1.0026,-1.0022,-1.0019,-1.0014,-0.999,-0.9983,-0.9987,-0.9973,-0.9986,-0.9984,-0.9981,-0.9922,-0.9917,-0.9996,-0.9996,-0.9996,-0.9996,-0.9996,-0.9996,-1.0146,-1.0158,-1.0142,-1.0148,-1.0134,-1.0134,-1.0129,-1.0121,-1.011,-1.0108,-1.0104,-1.0088,-1.007,-1.0061,-1.0055,-1.0047,-1.0045,-1.0061,-1.005,-0.9994,-0.9986,-0.9977,-0.9972,-1.0062,-1.0062,-1.0108,-1.0109,-1.0109]},{"header":{"parameterUnit":"m.s-1","parameterCategory":1,"la1":30.2991,"la2":30.254,"lo1":-89.0895,"lo2":-89.0444,"dy":0.0017,"dx":0.0017,"nx":28,"ny":28,"refTime":"2025-11-19T03:00:00:Z","depth":0,"parameterNumber":3,"parameterNumberName":"V-component_of_WINDS"},"data":[0,0,0,0,0,0,0,0,0,0,0,0,0,0,0,0,0,0,0,0,0,0,0,0,0,0,0,0,0,0,0,0,0,0,0,0,0,0,0,0,0,0,0,0,0,0,0,0,0,0,0,0,0,0,0,0,0,0,0.5854,0.5854,0,0.587,0.587,0.587,0.5893,0.5894,0.5894,0.5894,0.5908,0.5908,0.5908,0,0,0,0,0,0,0,0,0,0,0,0,0,0.5842,0.5842,0.5854,0.5854,0.5854,0.587,0.587,0.587,0.5893,0.5894,0.5894,0.5895,0.5908,0.5908,0.5908,0,0,0,0,0,0,0,0,0,0,0,0,0,0.5851,0.5842,0.5854,0.5868,0.5869,0.587,0.587,0.587,0.5893,0.5894,0.5894,0.5895,0.5908,0.5908,0.5907,0.5895,0,0,0.5907,0.5907,0,0,0,0,0,0,0,0,0.5851,0.5852,0.5865,0.5867,0.5868,0.588,0.5871,0.5879,0.5893,0.5884,0.5894,0.5895,0.5898,0.5899,0.59,0.5896,0.5896,0.5907,0.5907,0.5907,0.5907,0,0,0,0,0,0,0,0.585,0.5851,0.586,0.5866,0.5867,0.5873,0.5875,0.5872,0.5887,0.5885,0.5886,0.5888,0.5899,0.59,0.5901,0.5897,0.5907,0.5907,0.5907,0.5907,0.5885,0.5885,0,0,0,0,0,0,0.5848,0.5851,0.586,0.5861,0.5861,0.5872,0.5875,0.5876,0.5887,0.589,0.5888,0.5889,0.59,0.5901,0.5901,0.5889,0.5907,0.5907,0.5907,0.5886,0.5885,0.5885,0,0,0,0,0,0,0.5847,0.5848,0.5859,0.5856,0.5858,0.5872,0.5873,0.5876,0.5877,0.5889,0.5892,0.5886,0.59,0.5901,0.5897,0.589,0.5907,0.5907,0.5887,0.5886,0.5885,0.5864,0,0,0,0,0,0,0.5847,0.5848,0.5844,0.5856,0.5858,0.5855,0.5873,0.5876,0.5878,0.588,0.5889,0.5891,0.5901,0.5897,0.5897,0.589,0.5907,0.5887,0.5886,0.5885,0.5865,0.5862,0.586,0,0,0,0,0,0.5846,0.5836,0.5843,0.5844,0.5853,0.5855,0.5856,0.5868,0.5877,0.5873,0.5881,0.5891,0.5891,0.5897,0.5897,0.589,0.5888,0.5886,0.5885,0.5867,0.5863,0.586,0,0,0,0,0,0,0.582,0.5838,0.5846,0.5839,0.5846,0.5859,0.5853,0.5864,0.5867,0.5868,0.5883,0.5885,0.5879,0.5884,0.589,0.588,0.5891,0.589,0.5877,0.5873,0.5871,0.587,0.5907,0,0,0,0,0,0.5814,0.5815,0.583,0.5822,0.5825,0.5839,0.584,0.5849,0.5856,0.5858,0.5866,0.5871,0.5873,0.5873,0.5875,0.5866,0.5869,0.5862,0.5859,0.5857,0.5855,0.5853,0.585,0.588,0.588,0.5881,0,0,0.5801,0.581,0.5809,0.5817,0.5823,0.5824,0.5841,0.584,0.584,0.5858,0.5855,0.5861,0.5868,0.5863,0.586,0.5866,0.5848,0.5855,0.5853,0.5853,0.5851,0.5849,0.5846,0.588,0.588,0.588,0,0,0.5777,0.5784,0.5779,0.5786,0.5795,0.5805,0.5804,0.5816,0.5821,0.5819,0.5833,0.5834,0.5835,0.5841,0.5843,0.5824,0.5834,0.5824,0.581,0.5808,0.5805,0.5803,0.5798,0.5795,0.5823,0.5823,0.5823,0,0.5759,0.576,0.5775,0.5775,0.5778,0.5796,0.5792,0.5797,0.5806,0.5808,0.5815,0.5819,0.5825,0.5822,0.5818,0.5819,0.5818,0.5823,0.5805,0.5803,0.5801,0.5796,0.5794,0.5822,0.5822,0.5822,0.5822,0,0.5738,0.574,0.5735,0.5746,0.5748,0.5746,0.576,0.5762,0.5771,0.578,0.5779,0.5787,0.5792,0.5791,0.5799,0.579,0.5793,0.5802,0.5814,0.5797,0.5792,0.579,0.582,0.582,0.5821,0.5821,0,0,0.5697,0.5718,0.5716,0.5722,0.5735,0.5736,0.5735,0.5741,0.5743,0.5749,0.5748,0.5751,0.576,0.5763,0.5772,0.577,0.5757,0.578,0.578,0.5776,0.5748,0.5741,0.5739,0.5763,0.5763,0.5763,0.5748,0,0.5676,0.5676,0.5691,0.5687,0.5689,0.5707,0.5706,0.5714,0.5723,0.5726,0.5735,0.5737,0.5748,0.5751,0.5749,0.5758,0.5751,0.576,0.5763,0.5763,0.5762,0.5736,0.5729,0.5714,0.5746,0.5745,0.5745,0,0.5651,0.5659,0.5655,0.5671,0.5672,0.5671,0.568,0.5682,0.5692,0.5698,0.5703,0.5715,0.5715,0.5726,0.5727,0.5733,0.5735,0.574,0.574,0.5741,0.5753,0.5737,0.571,0.5708,0.5742,0.5742,0.5743,0,0.5624,0.5632,0.5632,0.5636,0.5654,0.5653,0.566,0.5671,0.5675,0.5681,0.5684,0.569,0.5693,0.5698,0.5711,0.5718,0.5711,0.5723,0.5716,0.5716,0.5714,0.5714,0.5687,0.5715,0.5715,0.5715,0.5715,0,0.5599,0.5597,0.562,0.562,0.5618,0.5635,0.5632,0.5641,0.5651,0.5653,0.5668,0.567,0.5687,0.569,0.57,0.57,0.5701,0.5706,0.5709,0.5705,0.5705,0.5707,0.5709,0.5714,0.5714,0.5714,0.5714,0,0.5567,0.5583,0.5584,0.5602,0.5606,0.5604,0.5619,0.562,0.563,0.5633,0.5634,0.565,0.5655,0.5669,0.5677,0.5684,0.5681,0.5686,0.5678,0.568,0.5673,0.5674,0.5648,0.5645,0.5673,0.5673,0.5673,0,0.5551,0.555,0.5568,0.5572,0.5579,0.5583,0.5588,0.5605,0.5609,0.5621,0.5621,0.5627,0.5633,0.5641,0.5653,0.5659,0.5665,0.5655,0.5666,0.5663,0.5666,0.5666,0.5667,0.5653,0.5652,0.5652,0.5652,0,0.5521,0.5529,0.5536,0.5545,0.5551,0.5559,0.5568,0.5569,0.5588,0.5592,0.5598,0.5603,0.5613,0.562,0.5629,0.5636,0.5647,0.5648,0.5648,0.5644,0.564,0.5643,0.5673,0.5649,0.5649,0.5649,0.5649,0.565,0.5497,0.5498,0.5512,0.5519,0.5528,0.5536,0.5539,0.555,0.5556,0.5567,0.5576,0.5582,0.5593,0.5607,0.5613,0.5618,0.5624,0.5622,0.5622,0.5621,0.562,0.5639,0.5619,0.5619,0.5619,0.562,0.562,0,0.5469,0.5479,0.5486,0.5499,0.5505,0.5517,0.5528,0.5532,0.5537,0.5547,0.5554,0.5562,0.5569,0.5583,0.5591,0.5592,0.5598,0.5594,0.5594,0.5596,0.5614,0.5614,0.559,0.559,0.559,0.559,0.559,0.559,0.5455,0.5457,0.5468,0.5475,0.5485,0.5492,0.5498,0.5506,0.5515,0.5524,0.553,0.554,0.5552,0.5562,0.5569,0.5573,0.5575,0.557,0.5575,0.5592,0.5594,0.5597,0.5598,0.557,0.557,0.5558,0.5557,0.5557]}]]